Retour au catalogue

STARLINK-37496

ActifCommunicationsSSO
NORAD 69297·PAYLOAD·🇺🇸 United States

Lancé May 30, 2026 depuis Vandenberg Space Force Base

Loading…

Prochains Passages (prochaines 24 heures)

TLE

FraisSource: CelesTrak SupGP

Époque: Sep 14, 2026, 15:24 UTC

1 69297C 26119B   26257.64215278 -.00036130  00000+0 -11216-2 0  2573
2 69297  97.2825 282.5474 0001644 100.6268 174.4500 15.33455938    16

Suivez STARLINK-37496 en temps réel avec AllMySat

Download on the App Store